sat.trackr.live / text

‹ back to catalog

YAOGAN-30 05C

NORAD 43172 · 2018-011D

PAYLOAD ACTIVE UNKNOWN

§ Identity

Operator
Country
PRC
Launch date
2018-01-25
Launch site
XICLF
Launch vehicle
Mass (kg)
RCS (m²)

External: N2YO · Heavens-Above · Gunter

§ Orbital elements

Epoch: 2026-09-20T05:21:05.402016Z

Period
95.80 min
Inclination
34.9970°
Eccentricity
0.0002078
Mean motion
15.03087339 rev/d
Perigee alt
555.9 km
Apogee alt
558.8 km
Semi-major
6,935.5 km
B*
1.2262e-4
RAAN
291.5744°
Arg perigee
219.4030°
Mean anomaly
140.6527°
Rev number
47,239

§ Raw data

YAOGAN-30 05C1 43172U 18011D   26263.22297919  .00001658  00000+0  12262-3 0  99932 43172  34.9970 291.5744 0002078 219.4030 140.6527 15.03087339472398

JSON: /api/v1/satellites/43172 · /tle

For live sub-satellite position, see the globe view (requires WebGL).

§ Visibility from observer

Set your observer location to see the next 7 days of passes ≥ 10°. The values pass through the URL so the page stays shareable.

No JS? Fill the form by hand. The geolocation button needs JavaScript.